Regional Weather Roundup
Issued by NWS Charleston, SC

Current Version | Previous Version | Text Only | Print | Product List | Glossary Off
Versions: 1 2 3 4 5 6 7 8 9 10 11 12 13 14 15 16 17 18 19 20 21 22 23 24 25 26 27 28 29 30 31 32 33 34 35 36 37 38 39 40 41 42 43 44 45 46 47 48 49 50

000
ASUS42 KCHS 060627
RWRCHS

REGIONAL WEATHER ROUNDUP
NATIONAL WEATHER SERVICE CHARLESTON SC
200 AM EDT MON JUL 06 2015

NOTE: "FAIR" INDICATES FEW OR NO CLOUDS BELOW 12,000 FEET WITH NO
SIGNIFICANT WEATHER AND/OR OBSTRUCTIONS TO VISIBILITY.

NOT ALL STATIONS ARE QUALITY CONTROLLED BY THE NATIONAL
WEATHER SERVICE. USE DATA WITH CAUTION...ESPECIALLY
DEWPOINT OBSERVATIONS.

SCZ027-030-031-034>040-042>050-060700-
...SOUTHEAST SOUTH CAROLINA...

CITY           SKY/WX    TMP DP  RH WIND       PRES   REMARKS
N CHARLESTON   PTCLDY    74  70  87 W6        30.12S
6HR MIN TEMP:  74; 6HR MAX TEMP:  81;

WATERFRONT PAR   N/A     77  72  84 VRB2      30.10R
MOUNT PLEASANT FAIR      73  72  94 CALM      30.13S
JOHNS ISLAND   FAIR      73  72  94 CALM      30.13S
PINOPOLIS      NOT AVBL
MONCKS CORNER  FAIR      73  70  88 CALM      30.12S
SUMMERVILLE    FAIR      72  72 100 CALM      30.13S
BEAUFORT MCAS  CLEAR     71  69  93 SW3       30.13S
6HR MIN TEMP:  71; 6HR MAX TEMP:  74; 6HR PCP: TRACE;

BEAUFORT ARPT  FAIR      72  72 100 CALM      30.12F
HILTON HEAD IS CLEAR     73  72  94 SW6       30.15S
WALTERBORO     CLEAR     70  68  94 SW3       30.13S
ALLENDALE      CLOUDY    72  72 100 CALM      30.12S

...SOUTHERN MIDLANDS AND PEE DEE...

CITY           SKY/WX    TMP DP  RH WIND       PRES   REMARKS
GEORGETOWN     NOT AVBL
KINGSTREE      NOT AVBL
ORANGEBURG     CLOUDY    71  69  93 SW7       30.13R FOG
6HR MIN TEMP:  71; 6HR MAX TEMP:  73; 6HR PCP:  0.01;

BARNWELL       CLOUDY    72  72 100 S5        30.13R FOG
AIKEN          NOT AVBL
MANNING        RAIN      72  70  94 SW3       30.12R
COLUMBIA       MOCLDY    72  69  90 S3        30.10R
6HR MIN TEMP:  72; 6HR MAX TEMP:  77; 6HR PCP: TRACE;

SUMTER         CLEAR     72  69  90 SW7       30.09S
6HR MIN TEMP:  71; 6HR MAX TEMP:  77; 6HR PCP: TRACE;

FLORENCE       CLEAR     74  72  93 S6        30.10S
6HR MIN TEMP:  74; 6HR MAX TEMP:  81;

MYRTLE BEACH   MOCLDY    81  72  74 SW6       30.14R
N MYRTLE BEACH MOCLDY    80  76  87 S9        30.12R
6HR MIN TEMP:  80; 6HR MAX TEMP:  83;


$$

GAZ063-065-086>088-099>101-113>116-118-119-134>141-150-060700-
...SOUTHEAST GEORGIA...

CITY           SKY/WX    TMP DP  RH WIND       PRES   REMARKS
SAVANNAH ARPT  MOCLDY    70  68  93 S6        30.14S
6HR MIN TEMP:  70; 6HR MAX TEMP:  73;

HUNTER AAF     PTCLDY    70  70 100 SW5       30.12R
6HR MIN TEMP:  70; 6HR MAX TEMP:  73; 6HR PCP: TRACE;

FORT STEWART   CLOUDY    72  69  92 S5        30.12S
6HR MIN TEMP:  71; 6HR MAX TEMP:  74;

STATESBORO     NOT AVBL
SYLVANIA       PTCLDY    72  72 100 CALM      30.14R
CLAXTON        CLOUDY    72  72 100 SW3       30.13S

...CSRA...CENTRAL AND FAR SOUTHEAST GEORGIA...

CITY           SKY/WX    TMP DP  RH WIND       PRES   REMARKS
THOMSON        CLEAR     74  72  95 S3        30.15S
AUGUSTA-BUSH   CLEAR     72  71  97 S5        30.10R
6HR MIN TEMP:  71; 6HR MAX TEMP:  78;

AUGUSTA-DANIEL CLEAR     75  70  84 SW6       30.11S
SWAINSBORO     FAIR     N/A N/A N/A CALM      30.13F
VIDALIA        CLOUDY    72  72 100 SW7       30.13F
EASTMAN        FAIR      73  73 100 CALM      30.15F
HAZLEHURST     CLOUDY    74  74 100 CALM      30.12F
ALMA           CLOUDY    72  71  97 S6        30.14S
6HR MIN TEMP:  72; 6HR MAX TEMP:  75;

WAYCROSS       CLOUDY    74  74  99 W5        30.14F
JESUP          CLOUDY    72  72 100 SW3       30.14F
BAXLEY         FAIR      73  72  94 SW3       30.13F
BRUNSWICK      PTCLDY    70  70 100 CALM      30.15F
SAINT SIMONS   MOCLDY    72  70  93 SW5       30.15S
6HR MIN TEMP:  72; 6HR MAX TEMP:  74;


$$

SCZ027-028-034-036>038-045-046-048>050-GAZ119-141-060700-
...LAKE AND SUPPLEMENTAL COASTAL OBSERVATIONS...

STATION/POSITION TIME  TEMP    WIND        PRES    WAVE   SWELL
                       AIR SEA DIR/SP/G            HT/PER HT/PER/DIR
                 (UTC) (F)     (DEG/KT/KT) (MB)    (FT/S) (FT/S/D)
UPR LAKE MARION  NOT AVBL
WINYAH BAY       0500   79     210/  6     1019.0S
LAKE MURRAY      0500   76     230/  8/ 10 1018.3F
ACE BASIN NERRS  NOT AVBL
FORT PULASKI     0600   73 83  230/  6/  9 1021.2R
SAPELO ISLAND    0600   73     230/  8     1021.0S

$$

ANZ835-935-AMZ111-154-330-350-352-354-370-450-454-472-060700-
...C-MAN AND BUOY OBSERVATIONS...

STATION/POSITION TIME  TEMP    WIND        PRES    WAVE   SWELL
                       AIR SEA DIR/SP/G            HT/PER HT/PER/DIR
                 (UTC) (F)     (DEG/KT/KT) (MB)    (FT/S) (FT/S/D)
BUOY 41004       0550   81 82  190/ 10/ 12 1019.7R   3/ 9   2/ 9
BUOY 41008       0550   77 78  220/ 12/ 14 1020.6R   2/ 9   2/120/ 9
FOLLY BEACH CMAN 0600   79     230/  9/ 13 1020.1R
CAPERS NEARSHORE 0508   80     230/ 10/ 12 1019.9S
FRIPP NEARSHORE  0500   79     250/  8/ 10 1020.0R


STATION/POSITION TIME  TEMP    WIND        PRES    WAVE   SWELL
                       AIR SEA DIR/SP/G            HT/PER HT/PER/DIR
                 (UTC) (F)     (DEG/KT/KT) (MB)    (FT/S) (FT/S/D)
5E ST. MARYS GA  0521      78                N/A     2/10
FRYING PAN BUOY  0550   81 79  190/ 10/ 10 1020.6R   3/ 8   2/100/ 8
BUOY 41025       0550   80 81  230/ 12/ 14 1020.2R   3/ 5   2/150/ 7
CAPE LOOKOUT NC  0600   79     210/  7/  9 1020.2R
BUOY 41002       0550   80 80  220/  8/ 10 1022.2F   3/ 8   3/130/ 8
BUOY 41010       0520   83 84  170/ 10/ 12 1021.1F
ST AUGUSTINE FL  0600   71 71  250/  5/  6 1021.6F


$$


USA.gov is the U.S. government's official web portal to all federal, state and local government web resources and services.